TimeCST,TemperatureF,Dew PointF,Humidity,Sea Level PressureIn,VisibilityMPH,Wind Direction,Wind SpeedMPH,Gust SpeedMPH,PrecipitationIn,Events,Conditions,WindDirDegrees,DateUTC
12:15 AM,33.8,33.8,100,30.18,5.0,NE,3.5,-,N/A,,Clear,40,2013-01-09 06:15:00
12:35 AM,33.8,32.0,93,30.18,5.0,NNE,4.6,-,N/A,,Clear,20,2013-01-09 06:35:00
12:55 AM,33.8,32.0,93,30.19,5.0,North,4.6,-,N/A,,Clear,360,2013-01-09 06:55:00
1:15 AM,33.8,32.0,93,30.19,5.0,North,5.8,-,N/A,,Clear,360,2013-01-09 07:15:00
1:35 AM,33.8,32.0,93,30.19,5.0,NNW,5.8,-,N/A,,Clear,340,2013-01-09 07:35:00
1:55 AM,33.8,33.8,100,30.20,5.0,North,4.6,-,N/A,,Clear,350,2013-01-09 07:55:00
2:15 AM,33.8,33.8,100,30.19,4.0,North,5.8,-,N/A,,Clear,10,2013-01-09 08:15:00
2:35 AM,35.6,35.6,100,30.19,4.0,North,6.9,-,N/A,,Clear,10,2013-01-09 08:35:00
2:55 AM,35.6,35.6,100,30.19,4.0,North,9.2,-,N/A,,Clear,360,2013-01-09 08:55:00
3:15 AM,35.6,35.6,100,30.21,5.0,North,9.2,-,N/A,,Clear,350,2013-01-09 09:15:00
3:35 AM,35.6,33.8,93,30.20,4.0,North,8.1,-,N/A,,Clear,360,2013-01-09 09:35:00
3:55 AM,33.8,32.0,93,30.20,3.0,North,6.9,-,N/A,,Mostly Cloudy,10,2013-01-09 09:55:00
4:15 AM,33.8,32.0,93,30.21,3.0,NNE,6.9,-,N/A,,Mist,20,2013-01-09 10:15:00
4:55 AM,33.8,32.0,93,30.22,5.0,North,9.2,-,N/A,,Clear,350,2013-01-09 10:55:00
6:17 AM,33.8,32.0,93,30.24,10.0,North,11.5,-,N/A,,Overcast,360,2013-01-09 12:17:00
6:50 AM,33.8,32.0,93,30.27,10.0,North,11.5,-,N/A,,Overcast,350,2013-01-09 12:50:00
8:55 AM,35.6,30.2,81,30.34,10.0,North,11.5,-,N/A,,Overcast,350,2013-01-09 14:55:00
9:50 AM,37.4,30.2,75,30.35,10.0,North,12.7,20.7,N/A,,Mostly Cloudy,350,2013-01-09 15:50:00
10:50 AM,41.0,32.0,70,30.36,10.0,NNE,13.8,20.7,N/A,,Mostly Cloudy,20,2013-01-09 16:50:00
11:50 AM,44.6,30.2,57,30.34,10.0,North,11.5,-,N/A,,Mostly Cloudy,360,2013-01-09 17:50:00
12:50 PM,50.0,32.0,50,30.31,10.0,NNE,2.3,-,N/A,,Mostly Cloudy,20,2013-01-09 18:50:00
1:50 PM,51.8,32.0,47,30.25,10.0,NE,13.8,20.7,N/A,,Mostly Cloudy,40,2013-01-09 19:50:00
2:50 PM,53.6,33.8,47,30.25,10.0,NNE,16.1,-,N/A,,Overcast,30,2013-01-09 20:50:00
3:50 PM,55.4,30.2,38,30.24,10.0,NE,13.8,21.9,N/A,,Overcast,40,2013-01-09 21:50:00
4:50 PM,53.6,32.0,44,30.24,10.0,NNE,16.1,-,N/A,,Overcast,30,2013-01-09 22:50:00
5:50 PM,51.8,32.0,47,30.24,10.0,NNE,16.1,-,N/A,,Overcast,30,2013-01-09 23:50:00
7:50 PM,48.2,39.2,71,30.22,10.0,NNE,13.8,-,N/A,,Overcast,30,2013-01-10 01:50:00
8:15 PM,46.4,39.2,76,30.21,10.0,NNE,9.2,-,N/A,,Drizzle,30,2013-01-10 02:15:00
8:35 PM,46.4,39.2,76,30.20,10.0,NE,11.5,-,N/A,,Light Drizzle,40,2013-01-10 02:35:00
8:50 PM,46.4,39.2,76,30.19,10.0,NE,13.8,-,N/A,,Overcast,40,2013-01-10 02:50:00
8:55 PM,46.4,39.2,76,30.19,10.0,NE,11.5,-,N/A,,Light Drizzle,50,2013-01-10 02:55:00
9:15 PM,46.4,39.2,76,30.18,10.0,NE,12.7,-,N/A,,Drizzle,50,2013-01-10 03:15:00
9:35 PM,46.4,39.2,76,30.17,10.0,NE,12.7,-,N/A,,Light Drizzle,50,2013-01-10 03:35:00
9:55 PM,46.4,41.0,81,30.17,10.0,ENE,15.0,-,N/A,,Light Drizzle,60,2013-01-10 03:55:00
10:15 PM,46.4,41.0,81,30.16,10.0,ENE,17.3,-,N/A,,Drizzle,60,2013-01-10 04:15:00
10:35 PM,44.6,41.0,87,30.16,7.0,ENE,17.3,-,0.01,Rain,Light Rain,60,2013-01-10 04:35:00
10:55 PM,44.6,41.0,87,30.15,7.0,ENE,16.1,-,0.03,Rain,Light Rain,60,2013-01-10 04:55:00
11:35 PM,44.6,42.8,93,30.14,10.0,ENE,15.0,-,0.02,Rain,Rain,60,2013-01-10 05:35:00
11:55 PM,44.6,42.8,93,30.13,10.0,ENE,16.1,20.7,0.02,,Light Drizzle,60,2013-01-10 05:55:00